Istanbul, Turkey

6:23 AM +03 on April 25, 2018 (GMT +0300)
Ataturk

Weather History for LTBA - June, 2014

Change the Weather History Date:

Sunday, June 29, 2014

  Actual Average Record
Temperature  
Mean Temperature 73 °F -  
Max Temperature 79 °F 83 °F 92 °F (2017)
Min Temperature 67 °F 69 °F 64 °F (2004)
Cooling Degree Days 8    
Growing Degree Days 23 (Base 50)    
Moisture  
Dew Point 58 °F    
Average Humidity 59    
Maximum Humidity 73    
Minimum Humidity 37    
Precipitation  
Precipitation 0.00 in - - ()
Sea Level Pressure  
Sea Level Pressure 30.04 in    
Wind  
Wind Speed 12 mph ()    
Max Wind Speed 17 mph    
Max Gust Speed 23 mph    
Visibility 6.4 miles    
Events      
Averages and records for this station are not official NWS values.
T = Trace of Precipitation, MM = Missing Value Source: Averaged Metar Reports

Daily Weather History Graph

Daily Weather History Graph

Search for Another Location

Airport or City:

Astronomy

Jun. 29, 2014 Rise Set
Actual Time 5:35 AM EEST 8:40 PM EEST
Civil Twilight 5:01 AM EEST 9:14 PM EEST
Nautical Twilight 4:19 AM EEST 9:57 PM EEST
Astronomical Twilight 3:28 AM EEST 10:47 PM EEST
Moon 7:36 AM EEST (6/29) 9:48 PM EEST (6/29)
Length of Visible Light 16h 12m
Length of Day
15h 05m
Waxing Crescent, 4% of the Moon is Illuminated
Jun 29
Waxing Crescent
Jul 5
First Quarter
Jul 12
Full
Jul 19
Last Quarter
Jul 27
New

Hourly Weather History & Observations

Time (EEST) Temp. Dew Point Humidity Pressure Visibility Wind Dir Wind Speed Gust Speed Precip Events Conditions
12:00 AM 70 °F 58 °F 57% 30.08 in 6 mi NE 15.0 mph - -  
12:20 AM 69.8 °F 59.0 °F 68% 30.06 in - NE 15.0 mph - N/A   Clear
12:50 AM 69.8 °F 59.0 °F 68% 30.06 in - NE 12.7 mph - N/A   Clear
1:20 AM 69.8 °F 57.2 °F 64% 30.06 in - NE 11.5 mph - N/A   Clear
1:50 AM 69.8 °F 59.0 °F 68% 30.06 in - NE 11.5 mph - N/A   Clear
2:20 AM 69.8 °F 59.0 °F 68% 30.06 in - NE 12.7 mph - N/A   Clear
2:50 AM 68.0 °F 59.0 °F 73% 30.06 in - NE 11.5 mph - N/A   Clear
3:00 AM 69 °F 58 °F 60% 30.07 in 9 mi NE 11.5 mph - -  
3:20 AM 68.0 °F 59.0 °F 73% 30.06 in - NE 12.7 mph - N/A   Clear
3:50 AM 68.0 °F 59.0 °F 73% 30.06 in - NE 10.4 mph - N/A   Clear
4:20 AM 68.0 °F 59.0 °F 73% 30.06 in - NE 12.7 mph - N/A   Clear
4:50 AM 68.0 °F 59.0 °F 73% 30.06 in - NE 10.4 mph 23.0 mph N/A   Clear
5:20 AM 68.0 °F 59.0 °F 73% 30.06 in - NNE 8.1 mph - N/A   Clear
5:50 AM 68.0 °F 59.0 °F 73% 30.06 in - NNE 9.2 mph - N/A   Clear
6:00 AM 68 °F 59 °F 65% 30.06 in 12 mi NNE 9.2 mph - -  
6:20 AM 68.0 °F 59.0 °F 73% 30.04 in - NE 8.1 mph - N/A   Clear
6:50 AM 69.8 °F 59.0 °F 68% 30.06 in - NNE 10.4 mph - N/A   Clear
7:20 AM 69.8 °F 59.0 °F 68% 30.04 in - NE 12.7 mph - N/A   Clear
7:50 AM 71.6 °F 59.0 °F 64% 30.04 in 6.2 mi NE 13.8 mph - N/A   Scattered Clouds
8:20 AM 71.6 °F 59.0 °F 64% 30.04 in 6.2 mi NE 11.5 mph - N/A   Scattered Clouds
8:50 AM 71.6 °F 57.2 °F 60% 30.04 in 6.2 mi NNE 15.0 mph - N/A   Scattered Clouds
9:00 AM 72 °F 58 °F 51% 30.05 in 6 mi NNE 15.0 mph - -   Partly Cloudy
9:20 AM 73.4 °F 57.2 °F 57% 30.04 in 6.2 mi NNE 13.8 mph - N/A   Scattered Clouds
9:50 AM 73.4 °F 57.2 °F 57% 30.06 in 6.2 mi NNE 13.8 mph - N/A   Scattered Clouds
10:20 AM 73.4 °F 57.2 °F 57% 30.04 in 6.2 mi NNE 16.1 mph - N/A   Scattered Clouds
10:50 AM 73.4 °F 57.2 °F 57% 30.04 in 6.2 mi NNE 13.8 mph - N/A   Scattered Clouds
11:20 AM 75.2 °F 57.2 °F 53% 30.04 in 6.2 mi NE 16.1 mph - N/A   Scattered Clouds
11:50 AM 77.0 °F 57.2 °F 50% 30.04 in 6.2 mi NE 13.8 mph - N/A   Scattered Clouds
12:00 PM 76 °F 57 °F 41% 30.06 in 6 mi NE 13.8 mph - -   Partly Cloudy
12:20 PM 77.0 °F 55.4 °F 47% 30.04 in 6.2 mi NNE 16.1 mph - N/A   Scattered Clouds
12:50 PM 77.0 °F 57.2 °F 50% 30.04 in 6.2 mi NNE 16.1 mph - N/A   Scattered Clouds
1:20 PM 77.0 °F 57.2 °F 50% 30.04 in 6.2 mi NE 15.0 mph - N/A   Scattered Clouds
1:50 PM 77.0 °F 59.0 °F 54% 30.04 in 6.2 mi NE 15.0 mph - N/A   Scattered Clouds
2:20 PM 77.0 °F 57.2 °F 50% 30.04 in 6.2 mi NNE 15.0 mph - N/A   Scattered Clouds
2:50 PM 78.8 °F 59.0 °F 51% 30.04 in 6.2 mi NNE 15.0 mph - N/A   Scattered Clouds
3:00 PM 78 °F 57 °F 37% 30.03 in 6 mi NNE 15.0 mph - -   Partly Cloudy
3:20 PM 78.8 °F 59.0 °F 51% 30.04 in 6.2 mi NE 15.0 mph - N/A   Scattered Clouds
3:50 PM 78.8 °F 59.0 °F 51% 30.04 in 6.2 mi NE 16.1 mph - N/A   Scattered Clouds
4:20 PM 77.0 °F 57.2 °F 50% 30.01 in 6.2 mi NE 17.3 mph - N/A   Scattered Clouds
4:50 PM 77.0 °F 59.0 °F 54% 30.01 in 6.2 mi NNE 17.3 mph - N/A   Scattered Clouds
5:20 PM 77.0 °F 59.0 °F 54% 30.01 in 6.2 mi NNE 17.3 mph - N/A   Scattered Clouds
5:50 PM 75.2 °F 60.8 °F 61% 30.01 in 6.2 mi NNE 16.1 mph - N/A   Scattered Clouds
6:00 PM 76 °F 60 °F 47% 30.02 in 6 mi NNE 16.1 mph - -   Partly Cloudy
6:20 PM 75.2 °F 59.0 °F 57% 30.01 in 6.2 mi ENE 15.0 mph - N/A   Scattered Clouds
6:50 PM 75.2 °F 57.2 °F 53% 30.01 in 6.2 mi NE 13.8 mph - N/A   Partly Cloudy
7:20 PM 75.2 °F 55.4 °F 50% 30.01 in 6.2 mi NNE 16.1 mph - N/A   Partly Cloudy
7:50 PM 73.4 °F 55.4 °F 53% 30.01 in 6.2 mi NE 17.3 mph - N/A   Partly Cloudy
8:20 PM 73.4 °F 55.4 °F 53% 30.01 in - NE 16.1 mph - N/A   Clear
8:50 PM 73.4 °F 55.4 °F 53% 30.01 in - NE 13.8 mph - N/A   Clear
9:00 PM 72 °F 56 °F 46% 30.01 in 6 mi NE 13.8 mph - -  
9:20 PM 71.6 °F 57.2 °F 60% 30.01 in - NE 13.8 mph - N/A   Clear
9:50 PM 71.6 °F 57.2 °F 60% 30.01 in - NE 16.1 mph - N/A   Clear
10:20 PM 71.6 °F 59.0 °F 64% 30.01 in - NE 13.8 mph - N/A   Clear
10:50 PM 69.8 °F 59.0 °F 68% 30.01 in - NE 13.8 mph - N/A   Clear
11:20 PM 69.8 °F 60.8 °F 73% 30.01 in - NE 12.7 mph - N/A   Clear
11:50 PM 69.8 °F 60.8 °F 73% 30.01 in 6.2 mi ENE 11.5 mph - N/A   Partly Cloudy